Location: B�rgermoos
(47.6500°N, 9.0667°E)
Time: 13:18:01
(UTC+00:00)

Vanguard 3 - Pass Details

Date: 08 August 2021
Orbit: 510 x 3260 km, 33.4° (Epoch: 26 September)

Event Time Altitude Azimuth Distance (km) Brightness Sun altitude
Rises 22:35:41 0° 272° (W) 6,829 12.1 -25.4°
Reaches altitude 10° 22:43:38 10° 252° (WSW) 6,107 11.5 -25.7°
Maximum altitude 22:51:48 14° 227° (SW) 5,823 11.2 -25.9°
Enters shadow 22:55:59 13° 214° (SW) 5,879 11.1 -26.1°
